星链-34632 (STARLINK-34632)

导读

STARLINK-34632是美国SpaceX公司星链(Starlink)星座中的一颗低轨卫星,于2025年7月16日发射入轨。星链计划旨在构建覆盖全球的卫星互联网,为地面网络未覆盖或弱覆盖地区提供宽带服务。截至2025年8月,星链已部署超八千颗卫星,覆盖上百个国家和地区,用户突破700万,STARLINK-34632的发射进一步扩充了星链星座的网络容量,助力其实现更稳定的全球互联服务。

Basic Information
目录编号:
64792
目录名称:
STARLINK-34632
国际标识:
2025-150C
轨道中心:
EARTH
卫星名称:
星链-34632
卫星全名:
星链-34632 (STARLINK-34632)
卫星状态:
在轨 (已飞行416 天)
发射日期:
2025-07-16 UTC
国别 :
美国 (US)
星等 :
--
Orbit Information
数据来源 国际轨道数据 AOE轨道数据
星历时间 2026-09-05T11:06:45+0800
13小时前
查看轨道信息
2026-09-01T09:00:00+0800
4天前
查看轨道信息
半长轴 6950.174km 6950.186km
偏心率 0.000264 0.0002519
轨道倾角 70.002° 70.001°
近地点辐角 266.753° 265.084°
升交点赤经 41.965° 52.271°
平近点角 93.333° 10.544°
近地点 570.202km 570.298km
远地点 573.872km 573.8km
周期 96.107分钟 96.107分钟
每日圈数 14.983363 14.983325
Detailed Information
固有亮度:
5
最大亮度:
2.5
卫星平台:
Starlink V1.0
覆盖范围:
全球
运营商:
太空探索技术公司
运营商所在国:
美国
制造商(研发单位):
太空探索技术公司
制造商所在国:
美国
使用方式:
暂无
Satellite Introduction
Starlink 计划是 SpaceX 推出的全球卫星互联网项目,通过发射低轨道卫星,为全球尤其是偏远地区提供高速、低延迟的互联网服务。自 2019 年起,Starlink 已部署数千颗卫星,旨在缩小全球数字鸿沟,推动互联网普及。该项目还为军事、航空等行业提供通信支持,带来广泛经济效益。
2D Orbit Map
3D Orbit Map
Orbit Altitude Analysis Chart
Orbit Inclination Analysis Chart
Orbit Comprehensive Analysis Chart
View Comprehensive Chart
Conjunction Data List
Event ID Objects TCA Miss Dist (km) Collision Risk Probability Collision Risk Index (CRI) Action
CDM_260907-154704-914806-479221
2026-09-07T
15:47:37+0000
2.278 km
极远距离
1.986024E-6 低风险 0.41